Regional Weather Roundup
Issued by NWS Bismarck, ND

Home | Current Version | Previous Version | Text Only | Print | Product List | Glossary On
Versions: 1 2 3 4 5 6 7 8 9 10 11 12 13 14 15 16 17 18 19 20 21 22 23 24 25 26 27 28 29 30 31 32 33 34 35 36 37 38 39 40 41 42 43 44 45 46 47 48 49 50
000
ASUS43 KBIS 271701
RWRBIS

NWR BROADCAST TEXT
NATIONAL WEATHER SERVICE BISMARCK ND
1100 AM CST FRI FEB 27 2015

NOTE: "FAIR" INDICATES FEW OR NO CLOUDS BELOW 12,000 FEET WITH NO
SIGNIFICANT WEATHER AND/OR OBSTRUCTIONS TO VISIBILITY.


CITY           SKY/WX    TMP DP  RH WIND       PRES   REMARKS
WILLISTON      SUNNY      7  -4  60 SE8       30.22F WCI  -6
MINOT          SUNNY      7  -4  60 SW10      30.29F WCI  -8
MINOT AFB      SUNNY      7  -4  62 SW8       30.29F WCI  -6
BISMARCK       SUNNY      9  -1  64 MISG      30.37F
DICKINSON      SUNNY     14   2  58 S20       30.17F WCI  -3
GARRISON         N/A      2  -3  80 S6        30.30F WCI  -9
HETTINGER ARPT SUNNY     13   2  61 S14       30.20F WCI  -2
JAMESTOWN      SUNNY      6  -3  66 SW10      30.39F WCI  -9
CARRINGTON     FAIR       5  -2  72 MISG      30.39S
CROSBY         FAIR       7  -2  66 S13       30.21F WCI  -9
HAZEN          FAIR      12  -2  52 SW10      30.32F WCI  -1
OAKES            N/A      5  -2  72 S10       30.46S WCI -10
WATFORD CITY   FAIR      12   0  57 S12       30.19F WCI  -2
$$

CITY           SKY/WX    TMP DP  RH WIND       PRES   REMARKS
GRAND FORKS    MOSUNNY    8  -4  58 W7        30.44F WCI  -3
GRAND FORKS AF SUNNY     11  -4  48 W8        30.43S WCI   0
DEVILS LAKE    SUNNY    N/A N/A N/A MISG        N/A
FARGO          SUNNY      4  -5  66 SW8       30.49S WCI  -9
GWINNER        SUNNY      9  -2  61 SW13      30.48S WCI  -7
$$

CITY           SKY/WX    TMP DP  RH WIND       PRES   REMARKS
ABERDEEN       SUNNY      2  -5  72 S7        30.49F WCI -11
MOBRIDGE       SUNNY      8   1  73 SE7       30.35F WCI  -3
BUFFALO          N/A     11   3  70 S14       30.06F WCI  -5
RAPID CITY     SUNNY     13   4  67 S23G29    30.16F WCI  -6
GLASGOW        SUNNY      9  -1  64 SE13      30.09F WCI  -7
SIDNEY         SUNNY     12  -6  44 S7        30.22F WCI   2
WOLF POINT     SUNNY     12   1  61 SE3       30.16F
GLENDIVE       SUNNY     16   5  62 S13       30.13F WCI   2
MILES CITY     SUNNY     13   4  67 SE14      30.08F WCI  -2
BAKER          SUNNY     13   2  61 SE14G23   30.11F WCI  -2
$$

CITY           SKY/WX    TMP DP  RH WIND       PRES   REMARKS
BILLINGS       MOSUNNY   11   4  73 SW3       29.96F
GREAT FALLS    CLOUDY    13   8  81 NW8       29.99R WCI   2
$$



USA.gov is the U.S. government's official web portal to all federal, state and local government web resources and services.